Regional Weather Roundup
Issued by NWS

Home | Current Version | Previous Version | Graphics & Text | Print | Product List | Glossary On
Versions: 1 2 3 4 5 6 7 8 9 10 11 12 13 14 15 16 17 18 19 20 21 22 23 24 25 26 27 28 29 30 31 32 33 34 35 36 37 38 39 40 41 42 43 44 45 46 47 48 49 50
000
ASUS43 KIND 162109
RWRIN

WEATHER ROUNDUP FOR INDIANA
NATIONAL WEATHER SERVICE INDIANAPOLIS IN
500 PM EDT WED APR 16 2014

NOTE: "FAIR" INDICATES FEW OR NO CLOUDS BELOW 12,000 FEET WITH NO
SIGNIFICANT WEATHER AND/OR OBSTRUCTIONS TO VISIBILITY.

* - STATION DOES NOT REPORT WEATHER SUCH AS PRECIPITATION OR FOG.

+ - STATION NOT QUALITY CONTROLLED BY THE NATIONAL WEATHER SERVICE.
    USE DATA WITH CAUTION...ESPECIALLY DEWPOINT AND RELATIVE
    HUMIDITY OBSERVATIONS.

INZ001>003-010>013-019-020-162200-
NORTHWEST INDIANA

CITY           SKY/WX    TMP DP  RH WIND       PRES   REMARKS
GARY /AIRPORT/ MOSUNNY   52  21  30 SE20G35   30.20F
LA PORTE +     PTSUNNY   49  20  32 SE16G25   30.24F
MICHIGAN CITY+ PTSUNNY   50  19  29 S9G22     30.23F
MONTICELLO +   SUNNY     49  24  37 SE8G20    30.23F
RENSSELAER +   SUNNY     52  21  30 SE13G24   30.22F
VALPARAISO     MOSUNNY   49  20  31 S17G31    30.22F

$$

LMZ046-743>745-162200-
SOUTHERN LAKE MICHIGAN

STATION/POSITION TIME  TEMP WIND        PRES
                       AIR  DIR/SP/G
                 (UTC) (F)  (DEG/KT/KT) (MB)
MICHIGAN CITY    2100   47  120/ 16/ 22   N/A

$$

INZ004-005-014>016-021>024-162200-
NORTH CENTRAL INDIANA

CITY           SKY/WX    TMP DP  RH WIND       PRES   REMARKS
ELKHART        PTSUNNY   46  18  31 SE17      30.27
GOSHEN         PTSUNNY   49  21  33 SE15G23   30.27F
LOGANSPORT +   SUNNY     50  21  32 SE17      30.26F
PERU/GRISSOM   SUNNY     50  24  36 SE18      30.25F
ROCHESTER +    MOSUNNY   50  23  34 SE13      30.26F
SOUTH BEND     PTSUNNY   49  20  31 SE20G25   30.26F
WARSAW +       MOSUNNY   46  21  36 SE8G21    30.27F

$$

INZ006>009-017-018-025>027-162200-
NORTHEAST INDIANA

CITY           SKY/WX    TMP DP  RH WIND       PRES   REMARKS
ANGOLA *+      SUNNY     45  23  42 SE15      30.31F
AUBURN +       MOSUNNY   46  19  34 E13       30.31F
FORT WAYNE     PTSUNNY   47  21  35 SE14G22   30.31F

$$

INZ028-029-035-036-043>045-051>053-162200-
WEST CENTRAL INDIANA

CITY           SKY/WX    TMP DP  RH WIND       PRES   REMARKS
GREENCASTLE +  SUNNY     52  23  32 S14G21    30.23F
LAFAYETTE      SUNNY     50  22  33 SE14G23   30.23F
TERRE HAUTE    SUNNY     52  24  33 SE14      30.21F

$$

INZ030>032-037>040-046>048-054>057-064-065-162200-
CENTRAL INDIANA

CITY           SKY/WX    TMP DP  RH WIND       PRES   REMARKS
CP ATTERBURY + SUNNY     50  23  34 SE9G17    30.26F
COLUMBUS       SUNNY     50  19  29 SE16      30.27F
INDIANAPOLIS   PTSUNNY   49  22  34 SE16G25   30.24F
-EAGLE CREEK   SUNNY     49  20  31 S12G20    30.24F
KOKOMO *+      SUNNY     48  27  43 SE17      30.25F
MARION +       SUNNY     48  20  32 SE17G23   30.28F
MT COMFORT *+  SUNNY     50  25  37 SE15G22   30.27F
SHELBYVILLE    SUNNY     52  23  32 SE16      30.26F
ZIONSVILLE +   SUNNY     50  18  29 SE13G20   30.25F

$$

INZ033-034-041-042-049-050-058-059-162200-
EAST CENTRAL INDIANA

CITY           SKY/WX    TMP DP  RH WIND       PRES   REMARKS
MUNCIE         SUNNY     47  20  34 SE13G22   30.27F

$$

INZ060-061-067>069-081>083-085>088-162200-
SOUTHWEST INDIANA

CITY           SKY/WX    TMP DP  RH WIND       PRES   REMARKS
EVANSVILLE     SUNNY     53  24  32 SE10      30.21F
HUNTINGBURG *+ SUNNY     54  27  35 SE14      30.23F
WASHINGTON +   SUNNY     53  28  38 SE16      30.22F

$$

INZ062-063-066-070>080-084-089>092-162200-
SOUTH CENTRAL AND SOUTHEAST INDIANA

CITY           SKY/WX    TMP DP  RH WIND       PRES   REMARKS
BLOOMINGTON    SUNNY     51  21  30 SE13      30.23F

$$




USA.gov is the U.S. government's official web portal to all federal, state and local government web resources and services.